Time,TemperatureF,DewpointF,PressureIn,WindDirection,WindDirectionDegrees,WindSpeedMPH,WindSpeedGustMPH,Humidity,HourlyPrecipIn,Conditions,Clouds,dailyrainin,SoftwareType,DateUTC
2013-06-18 00:03:00,54.1,51.3,30.04,ENE,67,5.0,9.0,90,0.00,,,0.00,meteohub,2013-06-17 23:03:00,
2013-06-18 00:08:00,54.0,51.4,30.04,East,90,6.0,7.0,91,0.00,,,0.00,meteohub,2013-06-17 23:08:00,
2013-06-18 00:13:00,54.0,51.4,30.04,ENE,67,6.0,6.0,91,0.00,,,0.00,meteohub,2013-06-17 23:13:00,
2013-06-18 00:18:00,54.0,51.4,30.04,East,90,6.0,6.0,91,0.00,,,0.00,meteohub,2013-06-17 23:18:00,
2013-06-18 00:23:00,53.8,51.4,30.04,East,90,5.0,8.0,92,0.00,,,0.00,meteohub,2013-06-17 23:23:00,
2013-06-18 00:28:00,53.8,51.4,30.04,ENE,67,5.0,8.0,92,0.00,,,0.00,meteohub,2013-06-17 23:28:00,
2013-06-18 00:34:00,53.8,51.4,30.04,East,90,5.0,8.0,92,0.00,,,0.00,meteohub,2013-06-17 23:34:00,
2013-06-18 00:39:00,53.8,51.4,30.01,NNE,22,4.0,6.0,92,0.00,,,0.00,meteohub,2013-06-17 23:39:00,
2013-06-18 00:44:00,53.8,51.4,30.01,ENE,67,3.0,6.0,92,0.00,,,0.00,meteohub,2013-06-17 23:44:00,
2013-06-18 00:49:00,53.8,51.4,30.01,ENE,67,4.0,6.0,92,0.00,,,0.00,meteohub,2013-06-17 23:49:00,
2013-06-18 00:54:00,53.8,51.4,30.01,East,90,3.0,6.0,92,0.00,,,0.00,meteohub,2013-06-17 23:54:00,
2013-06-18 00:59:00,53.8,51.4,30.01,ENE,67,5.0,6.0,92,0.00,,,0.00,meteohub,2013-06-17 23:59:00,
2013-06-18 01:04:00,53.6,51.3,30.01,ENE,67,5.0,6.0,92,0.00,,,0.00,meteohub,2013-06-18 00:04:00,
2013-06-18 01:09:00,53.6,51.3,30.01,NE,45,2.0,6.0,92,0.00,,,0.00,meteohub,2013-06-18 00:09:00,
2013-06-18 01:14:00,53.6,51.3,30.01,ENE,67,4.0,6.0,92,0.00,,,0.00,meteohub,2013-06-18 00:14:00,
2013-06-18 01:19:00,53.6,51.3,30.01,NE,45,4.0,6.0,92,0.00,,,0.00,meteohub,2013-06-18 00:19:00,
2013-06-18 01:24:00,53.6,51.3,30.01,NNE,22,2.0,5.0,92,0.00,,,0.00,meteohub,2013-06-18 00:24:00,
2013-06-18 01:29:00,53.6,51.3,30.01,NE,45,2.0,4.0,92,0.00,,,0.00,meteohub,2013-06-18 00:29:00,
2013-06-18 01:35:00,53.6,51.3,30.01,NNE,22,2.0,4.0,92,0.00,,,0.00,meteohub,2013-06-18 00:35:00,
2013-06-18 01:40:00,53.6,51.3,30.01,North,0,0.0,4.0,92,0.00,,,0.00,meteohub,2013-06-18 00:40:00,
2013-06-18 01:45:00,53.8,51.4,30.01,North,0,2.0,4.0,92,0.00,,,0.00,meteohub,2013-06-18 00:45:00,
2013-06-18 01:50:00,53.8,51.4,30.01,NNW,337,0.0,2.0,92,0.00,,,0.00,meteohub,2013-06-18 00:50:00,
2013-06-18 01:55:00,54.0,51.6,30.01,NNW,337,0.0,2.0,92,0.00,,,0.00,meteohub,2013-06-18 00:55:00,
2013-06-18 02:00:00,54.0,51.4,30.01,North,0,0.0,2.0,91,0.00,,,0.00,meteohub,2013-06-18 01:00:00,
2013-06-18 02:05:00,54.0,51.4,30.01,West,270,0.0,1.0,91,0.00,,,0.00,meteohub,2013-06-18 01:05:00,
2013-06-18 02:10:00,54.0,51.4,30.01,West,270,0.0,0.0,91,0.00,,,0.00,meteohub,2013-06-18 01:10:00,
2013-06-18 02:15:00,54.1,51.6,30.01,West,270,0.0,0.0,91,0.00,,,0.00,meteohub,2013-06-18 01:15:00,
2013-06-18 02:20:00,54.1,51.6,30.01,West,270,0.0,0.0,91,0.00,,,0.00,meteohub,2013-06-18 01:20:00,
2013-06-18 02:25:00,54.1,51.6,30.01,NW,315,0.0,0.0,91,0.00,,,0.00,meteohub,2013-06-18 01:25:00,
2013-06-18 02:30:00,54.1,51.6,30.01,NW,315,0.0,0.0,91,0.00,,,0.00,meteohub,2013-06-18 01:30:00,
2013-06-18 02:36:00,54.3,51.8,30.01,NW,315,0.0,0.0,91,0.00,,,0.00,meteohub,2013-06-18 01:36:00,
2013-06-18 02:41:00,54.3,51.8,30.01,SW,225,0.0,0.0,91,0.00,,,0.00,meteohub,2013-06-18 01:41:00,
2013-06-18 02:46:00,54.3,51.8,30.01,SW,225,0.0,0.0,91,0.00,,,0.00,meteohub,2013-06-18 01:46:00,
2013-06-18 02:51:00,54.3,51.8,30.01,WSW,247,0.0,0.0,91,0.00,,,0.00,meteohub,2013-06-18 01:51:00,
2013-06-18 02:56:00,54.3,51.8,30.01,West,270,0.0,0.0,91,0.00,,,0.00,meteohub,2013-06-18 01:56:00,
2013-06-18 03:01:00,54.3,51.8,30.01,WNW,292,0.0,2.0,91,0.00,,,0.00,meteohub,2013-06-18 02:01:00,
2013-06-18 03:06:00,54.5,52.0,30.01,NW,315,0.0,2.0,91,0.00,,,0.00,meteohub,2013-06-18 02:06:00,
2013-06-18 03:11:00,54.3,51.8,30.01,NNW,337,0.0,2.0,91,0.00,,,0.00,meteohub,2013-06-18 02:11:00,
2013-06-18 03:16:00,54.3,51.8,30.01,WNW,292,0.0,1.0,91,0.00,,,0.00,meteohub,2013-06-18 02:16:00,
2013-06-18 03:21:00,54.3,51.8,30.01,WNW,292,0.0,0.0,91,0.00,,,0.00,meteohub,2013-06-18 02:21:00,
2013-06-18 03:26:00,54.3,51.8,30.01,WNW,292,0.0,0.0,91,0.00,,,0.00,meteohub,2013-06-18 02:26:00,
2013-06-18 03:31:00,54.3,51.8,30.01,NE,45,0.0,0.0,91,0.00,,,0.00,meteohub,2013-06-18 02:31:00,
2013-06-18 03:37:00,54.3,51.8,30.01,ESE,112,0.0,0.0,91,0.00,,,0.00,meteohub,2013-06-18 02:37:00,
2013-06-18 03:42:00,54.3,51.8,30.01,East,90,0.0,0.0,91,0.00,,,0.00,meteohub,2013-06-18 02:42:00,
2013-06-18 03:47:00,54.3,51.8,30.01,East,90,0.0,3.0,91,0.00,,,0.00,meteohub,2013-06-18 02:47:00,
2013-06-18 03:52:00,54.3,51.8,29.98,East,90,2.0,3.0,91,0.00,,,0.00,meteohub,2013-06-18 02:52:00,
2013-06-18 03:57:00,54.3,51.8,29.98,East,90,2.0,3.0,91,0.00,,,0.00,meteohub,2013-06-18 02:57:00,
2013-06-18 04:02:00,54.3,51.8,29.98,SE,135,4.0,4.0,91,0.00,,,0.00,meteohub,2013-06-18 03:02:00,
2013-06-18 04:07:00,54.3,51.8,29.98,ESE,112,1.0,4.0,91,0.00,,,0.00,meteohub,2013-06-18 03:07:00,
2013-06-18 04:12:00,54.1,51.6,29.98,East,90,3.0,4.0,91,0.00,,,0.00,meteohub,2013-06-18 03:12:00,
2013-06-18 04:17:00,54.1,51.6,29.98,ESE,112,1.0,4.0,91,0.00,,,0.00,meteohub,2013-06-18 03:17:00,
2013-06-18 04:22:00,54.1,51.6,29.98,ESE,112,2.0,4.0,91,0.00,,,0.00,meteohub,2013-06-18 03:22:00,
2013-06-18 04:27:00,54.1,51.6,29.98,East,90,2.0,4.0,91,0.00,,,0.00,meteohub,2013-06-18 03:27:00,
2013-06-18 04:32:00,54.1,51.6,29.98,ESE,112,2.0,3.0,91,0.00,,,0.00,meteohub,2013-06-18 03:32:00,
2013-06-18 04:38:00,54.1,51.6,29.98,ENE,67,3.0,3.0,91,0.00,,,0.00,meteohub,2013-06-18 03:38:00,
2013-06-18 04:43:00,54.1,51.6,29.98,NE,45,1.0,3.0,91,0.00,,,0.00,meteohub,2013-06-18 03:43:00,
2013-06-18 04:48:00,54.1,51.6,29.98,East,90,1.0,3.0,91,0.00,,,0.00,meteohub,2013-06-18 03:48:00,
2013-06-18 04:53:00,54.1,51.6,29.98,East,90,1.0,4.0,91,0.00,,,0.00,meteohub,2013-06-18 03:53:00,
2013-06-18 04:58:00,54.1,51.6,29.98,East,90,2.0,4.0,91,0.00,,,0.00,meteohub,2013-06-18 03:58:00,
2013-06-18 05:01:00,54.1,51.6,29.98,East,90,2.0,4.0,91,0.00,,,0.00,meteohub,2013-06-18 04:01:00,
2013-06-18 05:02:00,54.1,51.6,29.98,East,90,3.0,4.0,91,0.00,,,0.00,meteohub,2013-06-18 04:02:00,
2013-06-18 05:08:00,54.1,51.6,29.98,ENE,67,0.0,4.0,91,0.00,,,0.00,meteohub,2013-06-18 04:08:00,
2013-06-18 05:13:00,54.1,51.6,29.98,ENE,67,0.0,3.0,91,0.00,,,0.00,meteohub,2013-06-18 04:13:00,
2013-06-18 05:18:00,54.1,51.6,29.98,East,90,3.0,3.0,91,0.00,,,0.00,meteohub,2013-06-18 04:18:00,
2013-06-18 05:23:00,54.1,51.8,29.98,East,90,3.0,4.0,92,0.00,,,0.00,meteohub,2013-06-18 04:23:00,
2013-06-18 05:28:00,54.0,51.6,29.98,ENE,67,3.0,4.0,92,0.00,,,0.00,meteohub,2013-06-18 04:28:00,
2013-06-18 05:33:00,54.0,51.6,29.98,NE,45,3.0,4.0,92,0.00,,,0.00,meteohub,2013-06-18 04:33:00,
2013-06-18 05:38:00,54.0,51.6,29.98,ENE,67,3.0,4.0,92,0.00,,,0.00,meteohub,2013-06-18 04:38:00,
2013-06-18 05:43:00,54.0,51.6,29.98,NE,45,3.0,4.0,92,0.00,,,0.00,meteohub,2013-06-18 04:43:00,
2013-06-18 05:48:00,54.0,51.6,29.98,NE,45,2.0,4.0,92,0.00,,,0.00,meteohub,2013-06-18 04:48:00,
2013-06-18 05:53:00,54.0,51.6,29.98,NNE,22,2.0,3.0,92,0.00,,,0.00,meteohub,2013-06-18 04:53:00,
2013-06-18 05:58:00,54.1,51.8,29.98,ENE,67,3.0,3.0,92,0.00,,,0.00,meteohub,2013-06-18 04:58:00,
2013-06-18 06:03:00,54.1,52.2,29.98,ENE,67,3.0,3.0,93,0.00,,,0.00,meteohub,2013-06-18 05:03:00,
2013-06-18 06:08:00,54.1,52.2,29.98,ENE,67,4.0,4.0,93,0.00,,,0.00,meteohub,2013-06-18 05:08:00,
2013-06-18 06:14:00,54.1,52.2,29.98,East,90,4.0,5.0,93,0.00,,,0.00,meteohub,2013-06-18 05:14:00,
2013-06-18 06:19:00,54.1,52.2,29.98,NE,45,1.0,5.0,93,0.00,,,0.00,meteohub,2013-06-18 05:19:00,
2013-06-18 06:24:00,54.1,52.2,29.98,East,90,3.0,5.0,93,0.00,,,0.00,meteohub,2013-06-18 05:24:00,
2013-06-18 06:29:00,54.3,52.3,29.98,ENE,67,3.0,5.0,93,0.00,,,0.00,meteohub,2013-06-18 05:29:00,
2013-06-18 06:34:00,54.3,52.3,29.98,ENE,67,3.0,5.0,93,0.00,,,0.00,meteohub,2013-06-18 05:34:00,
2013-06-18 06:39:00,54.3,52.3,29.98,East,90,3.0,5.0,93,0.00,,,0.00,meteohub,2013-06-18 05:39:00,
2013-06-18 06:44:00,54.5,52.5,29.98,ENE,67,1.0,4.0,93,0.00,,,0.00,meteohub,2013-06-18 05:44:00,
2013-06-18 06:49:00,54.5,52.5,29.98,NE,45,2.0,4.0,93,0.00,,,0.00,meteohub,2013-06-18 05:49:00,
2013-06-18 06:54:00,54.5,52.5,29.98,ENE,67,3.0,4.0,93,0.00,,,0.00,meteohub,2013-06-18 05:54:00,
2013-06-18 06:59:00,54.5,52.5,29.98,ENE,67,3.0,4.0,93,0.00,,,0.00,meteohub,2013-06-18 05:59:00,
2013-06-18 07:04:00,54.5,52.5,29.98,NNE,22,0.0,4.0,93,0.00,,,0.00,meteohub,2013-06-18 06:04:00,
2013-06-18 07:10:00,54.7,52.7,29.98,NNE,22,0.0,4.0,93,0.00,,,0.00,meteohub,2013-06-18 06:10:00,
2013-06-18 07:15:00,54.7,52.7,29.98,NE,45,1.0,3.0,93,0.00,,,0.00,meteohub,2013-06-18 06:15:00,
2013-06-18 07:20:00,54.7,52.7,29.98,NNE,22,0.0,3.0,93,0.00,,,0.00,meteohub,2013-06-18 06:20:00,
2013-06-18 07:25:00,54.9,52.9,29.98,NNE,22,0.0,3.0,93,0.00,,,0.00,meteohub,2013-06-18 06:25:00,
2013-06-18 07:30:00,54.9,52.9,29.98,NW,315,0.0,1.0,93,0.00,,,0.00,meteohub,2013-06-18 06:30:00,
2013-06-18 07:35:00,55.0,53.1,29.98,WNW,292,3.0,3.0,93,0.00,,,0.00,meteohub,2013-06-18 06:35:00,
2013-06-18 07:40:00,55.0,53.1,29.98,NW,315,0.0,3.0,93,0.00,,,0.00,meteohub,2013-06-18 06:40:00,
2013-06-18 07:45:00,55.0,53.1,29.98,NW,315,0.0,3.0,93,0.00,,,0.00,meteohub,2013-06-18 06:45:00,
2013-06-18 07:50:00,55.2,53.2,29.98,North,0,1.0,3.0,93,0.00,,,0.00,meteohub,2013-06-18 06:50:00,
2013-06-18 07:55:00,55.2,53.2,29.98,North,0,0.0,1.0,93,0.00,,,0.00,meteohub,2013-06-18 06:55:00,
2013-06-18 08:00:00,55.2,53.2,29.98,North,0,0.0,1.0,93,0.00,,,0.00,meteohub,2013-06-18 07:00:00,
2013-06-18 08:05:00,55.2,53.2,29.98,North,0,0.0,3.0,93,0.00,,,0.00,meteohub,2013-06-18 07:05:00,
2013-06-18 08:11:00,55.4,53.1,29.98,NE,45,0.0,3.0,92,0.00,,,0.00,meteohub,2013-06-18 07:11:00,
2013-06-18 08:16:00,55.4,53.1,29.98,East,90,2.0,3.0,92,0.00,,,0.00,meteohub,2013-06-18 07:16:00,
2013-06-18 08:21:00,55.6,53.6,29.98,East,90,2.0,3.0,93,0.00,,,0.00,meteohub,2013-06-18 07:21:00,
2013-06-18 08:26:00,55.6,53.6,29.98,ENE,67,2.0,4.0,93,0.00,,,0.00,meteohub,2013-06-18 07:26:00,
2013-06-18 08:31:00,55.8,53.8,29.98,ENE,67,3.0,4.0,93,0.00,,,0.00,meteohub,2013-06-18 07:31:00,
2013-06-18 08:36:00,55.9,53.6,29.98,NE,45,0.0,4.0,92,0.00,,,0.00,meteohub,2013-06-18 07:36:00,
2013-06-18 08:41:00,56.1,53.8,29.98,ENE,67,4.0,4.0,92,0.00,,,0.00,meteohub,2013-06-18 07:41:00,
2013-06-18 08:46:00,56.3,54.0,29.98,NE,45,2.0,4.0,92,0.00,,,0.00,meteohub,2013-06-18 07:46:00,
2013-06-18 08:51:00,56.3,54.0,29.98,East,90,3.0,4.0,92,0.00,,,0.00,meteohub,2013-06-18 07:51:00,
2013-06-18 08:56:00,56.5,54.1,29.98,ESE,112,3.0,4.0,92,0.00,,,0.00,meteohub,2013-06-18 07:56:00,
2013-06-18 09:01:00,56.7,54.3,29.98,North,0,0.0,4.0,92,0.00,,,0.00,meteohub,2013-06-18 08:01:00,
2013-06-18 09:06:00,56.7,54.3,29.98,NE,45,0.0,4.0,92,0.00,,,0.00,meteohub,2013-06-18 08:06:00,
2013-06-18 09:12:00,56.8,54.3,29.98,East,90,0.0,3.0,91,0.00,,,0.00,meteohub,2013-06-18 08:12:00,
2013-06-18 09:17:00,56.8,54.3,29.98,East,90,0.0,2.0,91,0.00,,,0.00,meteohub,2013-06-18 08:17:00,
2013-06-18 09:22:00,57.0,54.5,29.98,SE,135,3.0,3.0,91,0.00,,,0.00,meteohub,2013-06-18 08:22:00,
2013-06-18 09:27:00,57.0,54.5,29.98,East,90,0.0,4.0,91,0.00,,,0.00,meteohub,2013-06-18 08:27:00,
2013-06-18 09:32:00,57.2,54.3,29.98,SE,135,0.0,4.0,90,0.00,,,0.00,meteohub,2013-06-18 08:32:00,
2013-06-18 09:37:00,57.2,54.3,29.98,ESE,112,0.0,4.0,90,0.00,,,0.00,meteohub,2013-06-18 08:37:00,
2013-06-18 09:42:00,57.6,54.7,29.98,East,90,1.0,3.0,90,0.00,,,0.00,meteohub,2013-06-18 08:42:00,
2013-06-18 09:47:00,57.6,54.7,29.98,NE,45,1.0,2.0,90,0.00,,,0.00,meteohub,2013-06-18 08:47:00,
2013-06-18 09:52:00,57.7,54.9,29.98,NE,45,3.0,3.0,90,0.00,,,0.00,meteohub,2013-06-18 08:52:00,
2013-06-18 09:57:00,57.9,54.7,29.98,ENE,67,0.0,4.0,89,0.00,,,0.00,meteohub,2013-06-18 08:57:00,
2013-06-18 10:02:00,57.9,54.7,29.98,NE,45,3.0,4.0,89,0.00,,,0.00,meteohub,2013-06-18 09:02:00,
2013-06-18 10:07:00,58.1,54.9,29.98,ESE,112,3.0,4.0,89,0.00,,,0.00,meteohub,2013-06-18 09:07:00,
2013-06-18 10:12:00,58.5,54.9,29.98,ENE,67,2.0,4.0,88,0.00,,,0.00,meteohub,2013-06-18 09:12:00,
2013-06-18 10:17:00,58.6,55.0,29.98,East,90,0.0,4.0,88,0.00,,,0.00,meteohub,2013-06-18 09:17:00,
2013-06-18 10:22:00,59.0,55.2,29.98,East,90,0.0,3.0,87,0.00,,,0.00,meteohub,2013-06-18 09:22:00,
2013-06-18 10:27:00,59.2,55.4,29.98,East,90,0.0,3.0,87,0.00,,,0.00,meteohub,2013-06-18 09:27:00,
2013-06-18 10:32:00,59.5,55.4,29.98,SSE,157,0.0,2.0,86,0.00,,,0.00,meteohub,2013-06-18 09:32:00,
2013-06-18 10:37:00,59.9,55.4,29.98,East,90,0.0,3.0,85,0.00,,,0.00,meteohub,2013-06-18 09:37:00,
2013-06-18 10:43:00,60.4,55.9,29.98,East,90,4.0,4.0,85,0.00,,,0.00,meteohub,2013-06-18 09:43:00,
2013-06-18 10:48:00,60.6,55.8,29.98,NE,45,2.0,4.0,84,0.00,,,0.00,meteohub,2013-06-18 09:48:00,
2013-06-18 10:53:00,61.2,55.9,29.98,ESE,112,3.0,4.0,83,0.00,,,0.00,meteohub,2013-06-18 09:53:00,
2013-06-18 10:58:00,61.9,56.3,29.98,ENE,67,4.0,4.0,82,0.00,,,0.00,meteohub,2013-06-18 09:58:00,
2013-06-18 11:03:00,62.8,56.8,29.98,SE,135,4.0,5.0,81,0.00,,,0.00,meteohub,2013-06-18 10:03:00,
2013-06-18 11:08:00,63.7,57.0,29.95,SE,135,3.0,6.0,79,0.00,,,0.00,meteohub,2013-06-18 10:08:00,
2013-06-18 11:13:00,63.5,55.8,29.95,ESE,112,2.0,6.0,76,0.00,,,0.00,meteohub,2013-06-18 10:13:00,
2013-06-18 11:18:00,63.1,54.3,29.95,SE,135,7.0,7.0,73,0.00,,,0.00,meteohub,2013-06-18 10:18:00,
2013-06-18 11:23:00,63.1,54.7,29.95,SSE,157,2.0,7.0,74,0.00,,,0.00,meteohub,2013-06-18 10:23:00,
2013-06-18 11:29:00,63.1,54.0,29.95,ESE,112,4.0,7.0,72,0.00,,,0.00,meteohub,2013-06-18 10:29:00,
2013-06-18 11:34:00,63.0,53.8,29.95,SE,135,8.0,8.0,72,0.00,,,0.00,meteohub,2013-06-18 10:34:00,
2013-06-18 11:39:00,63.0,53.8,29.95,ESE,112,6.0,8.0,72,0.00,,,0.00,meteohub,2013-06-18 10:39:00,
2013-06-18 11:44:00,63.0,53.4,29.95,SSE,157,4.0,8.0,71,0.00,,,0.00,meteohub,2013-06-18 10:44:00,
2013-06-18 11:49:00,63.1,54.0,29.95,SE,135,4.0,8.0,72,0.00,,,0.00,meteohub,2013-06-18 10:49:00,
2013-06-18 11:54:00,63.1,54.0,29.95,SSE,157,3.0,6.0,72,0.00,,,0.00,meteohub,2013-06-18 10:54:00,
2013-06-18 11:59:00,63.3,53.8,29.95,ESE,112,6.0,6.0,71,0.00,,,0.00,meteohub,2013-06-18 10:59:00,
2013-06-18 12:04:00,63.3,53.4,29.95,SE,135,6.0,7.0,70,0.00,,,0.00,meteohub,2013-06-18 11:04:00,
2013-06-18 12:09:00,63.1,52.9,29.95,SSE,157,8.0,8.0,69,0.00,,,0.00,meteohub,2013-06-18 11:09:00,
2013-06-18 12:14:00,63.1,52.3,29.95,ESE,112,6.0,9.0,68,0.00,,,0.00,meteohub,2013-06-18 11:14:00,
2013-06-18 12:19:00,63.1,52.3,29.95,ESE,112,4.0,9.0,68,0.00,,,0.00,meteohub,2013-06-18 11:19:00,
2013-06-18 12:25:00,63.0,51.8,29.95,SE,135,6.0,9.0,67,0.00,,,0.00,meteohub,2013-06-18 11:25:00,
2013-06-18 12:30:00,63.0,51.8,29.95,East,90,7.0,9.0,67,0.00,,,0.00,meteohub,2013-06-18 11:30:00,
2013-06-18 12:35:00,63.1,52.0,29.95,East,90,5.0,9.0,67,0.00,,,0.00,meteohub,2013-06-18 11:35:00,
2013-06-18 12:40:00,63.3,52.5,29.95,East,90,6.0,9.0,68,0.00,,,0.00,meteohub,2013-06-18 11:40:00,
2013-06-18 12:45:00,63.3,52.2,29.95,East,90,4.0,8.0,67,0.00,,,0.00,meteohub,2013-06-18 11:45:00,
2013-06-18 12:50:00,63.5,52.0,29.95,East,90,4.0,6.0,66,0.00,,,0.00,meteohub,2013-06-18 11:50:00,
2013-06-18 12:55:00,63.9,52.7,29.95,SSE,157,5.0,6.0,67,0.00,,,0.00,meteohub,2013-06-18 11:55:00,
2013-06-18 13:01:00,64.0,52.5,29.95,ESE,112,5.0,6.0,66,0.00,,,0.00,meteohub,2013-06-18 12:01:00,
2013-06-18 13:06:00,64.2,52.2,29.95,East,90,3.0,6.0,65,0.00,,,0.00,meteohub,2013-06-18 12:06:00,
2013-06-18 13:11:00,64.4,52.3,29.95,East,90,0.0,6.0,65,0.00,,,0.00,meteohub,2013-06-18 12:11:00,
2013-06-18 13:16:00,64.4,52.0,29.95,SE,135,2.0,6.0,64,0.00,,,0.00,meteohub,2013-06-18 12:16:00,
2013-06-18 13:21:00,64.6,52.5,29.92,East,90,0.0,6.0,65,0.00,,,0.00,meteohub,2013-06-18 12:21:00,
2013-06-18 13:26:00,64.8,52.3,29.92,East,90,2.0,6.0,64,0.00,,,0.00,meteohub,2013-06-18 12:26:00,
2013-06-18 13:31:00,64.9,52.5,29.92,East,90,4.0,6.0,64,0.00,,,0.00,meteohub,2013-06-18 12:31:00,
2013-06-18 13:36:00,65.1,52.7,29.92,East,90,6.0,6.0,64,0.00,,,0.00,meteohub,2013-06-18 12:36:00,
2013-06-18 13:41:00,65.1,52.7,29.92,NE,45,4.0,6.0,64,0.00,,,0.00,meteohub,2013-06-18 12:41:00,
2013-06-18 13:46:00,65.1,52.2,29.92,East,90,0.0,6.0,63,0.00,,,0.00,meteohub,2013-06-18 12:46:00,
2013-06-18 13:52:00,65.3,52.9,29.92,NW,315,3.0,6.0,64,0.00,,,0.00,meteohub,2013-06-18 12:52:00,
2013-06-18 13:57:00,65.5,53.4,29.92,North,0,3.0,5.0,65,0.00,,,0.00,meteohub,2013-06-18 12:57:00,
2013-06-18 14:02:00,65.7,53.6,29.92,West,270,0.0,4.0,65,0.00,,,0.00,meteohub,2013-06-18 13:02:00,
2013-06-18 14:07:00,66.0,54.0,29.92,NNE,22,0.0,5.0,65,0.00,,,0.00,meteohub,2013-06-18 13:07:00,
2013-06-18 14:12:00,66.2,53.6,29.92,ENE,67,2.0,5.0,64,0.00,,,0.00,meteohub,2013-06-18 13:12:00,
2013-06-18 14:17:00,66.6,54.0,29.92,NNW,337,0.0,5.0,64,0.00,,,0.00,meteohub,2013-06-18 13:17:00,
2013-06-18 14:22:00,66.7,53.2,29.92,WNW,292,1.0,4.0,62,0.00,,,0.00,meteohub,2013-06-18 13:22:00,
2013-06-18 14:27:00,67.1,53.2,29.92,SSW,202,0.0,4.0,61,0.00,,,0.00,meteohub,2013-06-18 13:27:00,
2013-06-18 14:32:00,67.3,53.8,29.92,SSE,157,4.0,5.0,62,0.00,,,0.00,meteohub,2013-06-18 13:32:00,
2013-06-18 14:37:00,67.1,52.3,29.92,South,180,3.0,6.0,59,0.00,,,0.00,meteohub,2013-06-18 13:37:00,
2013-06-18 14:42:00,67.3,52.9,29.92,ENE,67,5.0,6.0,60,0.00,,,0.00,meteohub,2013-06-18 13:42:00,
2013-06-18 14:47:00,67.5,52.2,29.92,East,90,5.0,6.0,58,0.00,,,0.00,meteohub,2013-06-18 13:47:00,
2013-06-18 14:52:00,67.5,52.2,29.92,SE,135,3.0,6.0,58,0.00,,,0.00,meteohub,2013-06-18 13:52:00,
2013-06-18 14:58:00,67.8,52.9,29.92,East,90,6.0,6.0,59,0.00,,,0.00,meteohub,2013-06-18 13:58:00,
2013-06-18 15:03:00,68.0,52.2,29.92,SSE,157,4.0,6.0,57,0.00,,,0.00,meteohub,2013-06-18 14:03:00,
2013-06-18 15:08:00,68.2,52.3,29.92,East,90,5.0,6.0,57,0.00,,,0.00,meteohub,2013-06-18 14:08:00,
2013-06-18 15:13:00,68.4,53.1,29.92,North,0,5.0,6.0,58,0.00,,,0.00,meteohub,2013-06-18 14:13:00,
2013-06-18 15:18:00,68.4,52.0,29.92,NE,45,3.0,8.0,56,0.00,,,0.00,meteohub,2013-06-18 14:18:00,
2013-06-18 15:23:00,68.5,52.7,29.92,North,0,2.0,8.0,57,0.00,,,0.00,meteohub,2013-06-18 14:23:00,
2013-06-18 15:28:00,68.4,53.1,29.92,East,90,4.0,8.0,58,0.00,,,0.00,meteohub,2013-06-18 14:28:00,
2013-06-18 15:33:00,68.0,51.8,29.92,East,90,4.0,7.0,56,0.00,,,0.00,meteohub,2013-06-18 14:33:00,
2013-06-18 15:38:00,67.8,52.0,29.92,ESE,112,6.0,8.0,57,0.00,,,0.00,meteohub,2013-06-18 14:38:00,
2013-06-18 15:43:00,67.8,52.5,29.92,East,90,0.0,9.0,58,0.00,,,0.00,meteohub,2013-06-18 14:43:00,
2013-06-18 15:48:00,68.0,52.7,29.92,SE,135,4.0,9.0,58,0.00,,,0.00,meteohub,2013-06-18 14:48:00,
2013-06-18 15:53:00,68.0,52.2,29.92,SE,135,3.0,9.0,57,0.00,,,0.00,meteohub,2013-06-18 14:53:00,
2013-06-18 15:59:00,68.0,52.7,29.92,ESE,112,6.0,7.0,58,0.00,,,0.00,meteohub,2013-06-18 14:59:00,
2013-06-18 16:04:00,67.8,52.5,29.92,East,90,4.0,7.0,58,0.00,,,0.00,meteohub,2013-06-18 15:04:00,
2013-06-18 16:09:00,67.6,52.3,29.92,East,90,3.0,6.0,58,0.00,,,0.00,meteohub,2013-06-18 15:09:00,
2013-06-18 16:14:00,67.6,52.9,29.92,ESE,112,4.0,6.0,59,0.00,,,0.00,meteohub,2013-06-18 15:14:00,
2013-06-18 16:19:00,67.3,52.0,29.92,East,90,6.0,6.0,58,0.00,,,0.00,meteohub,2013-06-18 15:19:00,
2013-06-18 16:24:00,67.5,52.7,29.92,East,90,3.0,7.0,59,0.00,,,0.00,meteohub,2013-06-18 15:24:00,
2013-06-18 16:29:00,67.1,52.3,29.92,SE,135,6.0,7.0,59,0.00,,,0.00,meteohub,2013-06-18 15:29:00,
2013-06-18 16:34:00,66.9,52.5,29.92,ESE,112,6.0,8.0,60,0.00,,,0.00,meteohub,2013-06-18 15:34:00,
2013-06-18 16:39:00,66.9,52.5,29.92,SSE,157,6.0,8.0,60,0.00,,,0.00,meteohub,2013-06-18 15:39:00,
2013-06-18 16:44:00,66.9,53.4,29.92,SSE,157,6.0,8.0,62,0.00,,,0.00,meteohub,2013-06-18 15:44:00,
2013-06-18 16:49:00,66.6,53.6,29.92,ESE,112,2.0,8.0,63,0.00,,,0.00,meteohub,2013-06-18 15:49:00,
2013-06-18 16:55:00,66.6,54.0,29.89,SE,135,7.0,8.0,64,0.00,,,0.00,meteohub,2013-06-18 15:55:00,
2013-06-18 17:00:00,66.6,54.5,29.89,SE,135,4.0,7.0,65,0.00,,,0.00,meteohub,2013-06-18 16:00:00,
2013-06-18 17:05:00,66.7,54.7,29.89,SE,135,6.0,7.0,65,0.00,,,0.00,meteohub,2013-06-18 16:05:00,
2013-06-18 17:10:00,66.9,54.9,29.89,SSE,157,4.0,7.0,65,0.00,,,0.00,meteohub,2013-06-18 16:10:00,
2013-06-18 17:15:00,66.7,54.7,29.89,South,180,4.0,7.0,65,0.00,,,0.00,meteohub,2013-06-18 16:15:00,
2013-06-18 17:20:00,66.6,54.0,29.92,SE,135,4.0,8.0,64,0.00,,,0.00,meteohub,2013-06-18 16:20:00,
2013-06-18 17:25:00,66.4,53.8,29.92,SSE,157,4.0,8.0,64,0.00,,,0.00,meteohub,2013-06-18 16:25:00,
2013-06-18 17:30:00,66.4,54.3,29.92,ESE,112,5.0,8.0,65,0.00,,,0.00,meteohub,2013-06-18 16:30:00,
2013-06-18 17:35:00,66.6,54.5,29.92,SSW,202,0.0,7.0,65,0.00,,,0.00,meteohub,2013-06-18 16:35:00,
2013-06-18 17:40:00,66.7,55.0,29.92,SE,135,3.0,6.0,66,0.00,,,0.00,meteohub,2013-06-18 16:40:00,
2013-06-18 17:45:00,66.7,54.7,29.92,East,90,4.0,6.0,65,0.00,,,0.00,meteohub,2013-06-18 16:45:00,
2013-06-18 17:51:00,66.6,54.5,29.92,East,90,3.0,6.0,65,0.00,,,0.00,meteohub,2013-06-18 16:51:00,
2013-06-18 17:56:00,66.6,54.5,29.92,ESE,112,4.0,6.0,65,0.00,,,0.00,meteohub,2013-06-18 16:56:00,
2013-06-18 18:01:00,66.4,53.8,29.92,ESE,112,3.0,6.0,64,0.00,,,0.00,meteohub,2013-06-18 17:01:00,
2013-06-18 18:06:00,66.6,54.9,29.92,SE,135,2.0,6.0,66,0.00,,,0.00,meteohub,2013-06-18 17:06:00,
2013-06-18 18:11:00,66.6,54.9,29.92,ENE,67,4.0,6.0,66,0.00,,,0.00,meteohub,2013-06-18 17:11:00,
2013-06-18 18:16:00,66.4,54.7,29.92,NE,45,3.0,6.0,66,0.00,,,0.00,meteohub,2013-06-18 17:16:00,
2013-06-18 18:21:00,66.2,54.5,29.92,NNE,22,1.0,6.0,66,0.00,,,0.00,meteohub,2013-06-18 17:21:00,
2013-06-18 18:26:00,66.2,54.5,29.92,ENE,67,3.0,6.0,66,0.00,,,0.00,meteohub,2013-06-18 17:26:00,
2013-06-18 18:31:00,66.0,54.7,29.92,NNE,22,3.0,5.0,67,0.00,,,0.00,meteohub,2013-06-18 17:31:00,
2013-06-18 18:36:00,65.8,54.5,29.92,NNW,337,2.0,5.0,67,0.00,,,0.00,meteohub,2013-06-18 17:36:00,
2013-06-18 18:41:00,65.8,55.0,29.92,North,0,3.0,5.0,68,0.00,,,0.00,meteohub,2013-06-18 17:41:00,
2013-06-18 18:46:00,65.5,54.7,29.92,East,90,0.0,4.0,68,0.00,,,0.00,meteohub,2013-06-18 17:46:00,
2013-06-18 18:52:00,65.3,54.5,29.92,NE,45,3.0,4.0,68,0.00,,,0.00,meteohub,2013-06-18 17:52:00,
2013-06-18 18:57:00,65.1,54.3,29.92,East,90,0.0,4.0,68,0.00,,,0.00,meteohub,2013-06-18 17:57:00,
2013-06-18 19:02:00,64.9,54.5,29.92,East,90,0.0,4.0,69,0.00,,,0.00,meteohub,2013-06-18 18:02:00,
2013-06-18 19:07:00,65.1,54.7,29.92,North,0,0.0,4.0,69,0.00,,,0.00,meteohub,2013-06-18 18:07:00,
2013-06-18 19:12:00,65.3,55.2,29.92,WNW,292,1.0,3.0,70,0.00,,,0.00,meteohub,2013-06-18 18:12:00,
2013-06-18 19:17:00,65.5,55.0,29.92,WNW,292,0.0,3.0,69,0.00,,,0.00,meteohub,2013-06-18 18:17:00,
2013-06-18 19:22:00,65.5,54.7,29.92,West,270,2.0,3.0,68,0.00,,,0.00,meteohub,2013-06-18 18:22:00,
2013-06-18 19:27:00,65.3,54.1,29.92,WNW,292,3.0,6.0,67,0.00,,,0.00,meteohub,2013-06-18 18:27:00,
2013-06-18 19:32:00,65.3,54.5,29.92,West,270,1.0,6.0,68,0.00,,,0.00,meteohub,2013-06-18 18:32:00,
2013-06-18 19:37:00,65.1,54.3,29.92,WSW,247,0.0,6.0,68,0.00,,,0.00,meteohub,2013-06-18 18:37:00,
2013-06-18 19:42:00,64.9,53.2,29.92,SW,225,4.0,5.0,66,0.00,,,0.00,meteohub,2013-06-18 18:42:00,
2013-06-18 19:47:00,64.9,52.9,29.92,WNW,292,0.0,5.0,65,0.00,,,0.00,meteohub,2013-06-18 18:47:00,
2013-06-18 19:53:00,64.9,52.9,29.92,WSW,247,0.0,5.0,65,0.00,,,0.00,meteohub,2013-06-18 18:53:00,
2013-06-18 19:58:00,65.1,53.4,29.92,WSW,247,4.0,5.0,66,0.00,,,0.00,meteohub,2013-06-18 18:58:00,
2013-06-18 20:03:00,65.3,53.6,29.92,West,270,2.0,5.0,66,0.00,,,0.00,meteohub,2013-06-18 19:03:00,
2013-06-18 20:08:00,65.3,53.2,29.92,WSW,247,3.0,6.0,65,0.00,,,0.00,meteohub,2013-06-18 19:08:00,
2013-06-18 20:13:00,65.3,53.2,29.92,WNW,292,4.0,8.0,65,0.00,,,0.00,meteohub,2013-06-18 19:13:00,
2013-06-18 20:18:00,65.1,52.2,29.92,WSW,247,4.0,8.0,63,0.00,,,0.00,meteohub,2013-06-18 19:18:00,
2013-06-18 20:23:00,64.8,51.1,29.92,WNW,292,8.0,10.0,61,0.00,,,0.00,meteohub,2013-06-18 19:23:00,
2013-06-18 20:28:00,64.6,50.9,29.92,WNW,292,6.0,12.0,61,0.00,,,0.00,meteohub,2013-06-18 19:28:00,
2013-06-18 20:33:00,64.4,50.7,29.92,WNW,292,6.0,12.0,61,0.00,,,0.00,meteohub,2013-06-18 19:33:00,
2013-06-18 20:38:00,64.4,50.7,29.92,WSW,247,6.0,12.0,61,0.00,,,0.00,meteohub,2013-06-18 19:38:00,
2013-06-18 20:43:00,64.2,50.5,29.92,WSW,247,6.0,10.0,61,0.00,,,0.00,meteohub,2013-06-18 19:43:00,
2013-06-18 20:49:00,64.0,50.4,29.92,SW,225,3.0,10.0,61,0.00,,,0.00,meteohub,2013-06-18 19:49:00,
2013-06-18 20:54:00,63.9,50.5,29.92,WSW,247,6.0,10.0,62,0.00,,,0.00,meteohub,2013-06-18 19:54:00,
2013-06-18 20:59:00,63.9,50.5,29.92,West,270,3.0,9.0,62,0.00,,,0.00,meteohub,2013-06-18 19:59:00,
2013-06-18 21:04:00,63.9,50.5,29.92,WSW,247,6.0,9.0,62,0.00,,,0.00,meteohub,2013-06-18 20:04:00,
2013-06-18 21:09:00,63.7,50.4,29.92,WNW,292,5.0,8.0,62,0.00,,,0.00,meteohub,2013-06-18 20:09:00,
2013-06-18 21:14:00,63.5,50.2,29.92,WNW,292,5.0,8.0,62,0.00,,,0.00,meteohub,2013-06-18 20:14:00,
2013-06-18 21:19:00,63.5,50.7,29.92,WSW,247,2.0,7.0,63,0.00,,,0.00,meteohub,2013-06-18 20:19:00,
2013-06-18 21:24:00,63.5,50.7,29.92,WSW,247,4.0,7.0,63,0.00,,,0.00,meteohub,2013-06-18 20:24:00,
2013-06-18 21:29:00,63.3,50.5,29.92,WSW,247,2.0,7.0,63,0.00,,,0.00,meteohub,2013-06-18 20:29:00,
2013-06-18 21:34:00,63.1,50.7,29.92,West,270,3.0,7.0,64,0.00,,,0.00,meteohub,2013-06-18 20:34:00,
2013-06-18 21:40:00,63.0,50.5,29.92,WSW,247,3.0,7.0,64,0.00,,,0.00,meteohub,2013-06-18 20:40:00,
2013-06-18 21:45:00,62.8,50.4,29.92,West,270,4.0,7.0,64,0.00,,,0.00,meteohub,2013-06-18 20:45:00,
2013-06-18 21:50:00,62.6,50.7,29.92,West,270,6.0,7.0,65,0.00,,,0.00,meteohub,2013-06-18 20:50:00,
2013-06-18 21:55:00,62.4,50.5,29.92,SSW,202,3.0,7.0,65,0.00,,,0.00,meteohub,2013-06-18 20:55:00,
2013-06-18 22:00:00,62.2,50.7,29.92,WSW,247,3.0,7.0,66,0.00,,,0.00,meteohub,2013-06-18 21:00:00,
2013-06-18 22:05:00,62.1,50.5,29.95,SW,225,3.0,8.0,66,0.00,,,0.00,meteohub,2013-06-18 21:05:00,
2013-06-18 22:10:00,61.9,50.4,29.95,WSW,247,0.0,8.0,66,0.00,,,0.00,meteohub,2013-06-18 21:10:00,
2013-06-18 22:15:00,61.5,50.5,29.95,WSW,247,5.0,11.0,67,0.00,,,0.00,meteohub,2013-06-18 21:15:00,
2013-06-18 22:20:00,61.2,50.2,29.92,West,270,5.0,11.0,67,0.00,,,0.00,meteohub,2013-06-18 21:20:00,
2013-06-18 22:26:00,61.0,50.0,29.92,WSW,247,4.0,11.0,67,0.00,,,0.00,meteohub,2013-06-18 21:26:00,
2013-06-18 22:31:00,60.6,50.4,29.92,WSW,247,4.0,9.0,69,0.00,,,0.00,meteohub,2013-06-18 21:31:00,
2013-06-18 23:03:00,59.2,49.8,29.92,NW,315,6.0,7.0,71,0.00,,,0.00,meteohub,2013-06-18 22:03:00,
2013-06-18 23:08:00,58.8,49.8,29.92,NW,315,6.0,9.0,72,0.00,,,0.00,meteohub,2013-06-18 22:08:00,
2013-06-18 23:13:00,58.6,49.6,29.92,NW,315,4.0,9.0,72,0.00,,,0.00,meteohub,2013-06-18 22:13:00,
2013-06-18 23:18:00,58.3,49.6,29.92,SW,225,3.0,9.0,73,0.00,,,0.00,meteohub,2013-06-18 22:18:00,
2013-06-18 23:23:00,57.9,49.3,29.92,SSW,202,1.0,6.0,73,0.00,,,0.00,meteohub,2013-06-18 22:23:00,
2013-06-18 23:28:00,57.7,49.5,29.92,WSW,247,1.0,6.0,74,0.00,,,0.00,meteohub,2013-06-18 22:28:00,
2013-06-18 23:33:00,57.4,49.1,29.92,WNW,292,4.0,6.0,74,0.00,,,0.00,meteohub,2013-06-18 22:33:00,
2013-06-18 23:38:00,57.4,49.1,29.92,NW,315,5.0,5.0,74,0.00,,,0.00,meteohub,2013-06-18 22:38:00,
2013-06-18 23:43:00,57.4,49.1,29.92,WNW,292,3.0,6.0,74,0.00,,,0.00,meteohub,2013-06-18 22:43:00,
2013-06-18 23:48:00,57.2,48.6,29.92,WNW,292,8.0,8.0,73,0.00,,,0.00,meteohub,2013-06-18 22:48:00,
2013-06-18 23:53:00,57.2,48.6,29.95,WNW,292,1.0,8.0,73,0.00,,,0.00,meteohub,2013-06-18 22:53:00,
2013-06-18 23:58:00,57.0,48.4,29.95,SW,225,3.0,8.0,73,0.00,,,0.00,meteohub,2013-06-18 22:58:00,